map of TLL home
TLL - Airport
Location
City:  Tallinn, Estonia
Name:Ülemiste
ICAO:EETN
IATA:TLL

Details
Type:Airport (Aerodrome, Airfield)
Use:Public/Civil, International (customs port of entry)
Latitude:59°24'48"N (59.413317)
Longitude:24°49'58"E (24.832844)
Datum:WGS 1984
Elevation:131 ft (40 m)
Variation:8.95°E (WMM2015v2 magnetic declination)
0.19° annual change
Runways:1
Longest:10072 × 148 ft (3070 × 45 m), paved

Time
Time Zone:UTC+2 (DST+3)
Local Time:

Weather
METAR:EETN 041420Z 28015KT 9999 OVC015 M04/M06 Q1017 R08/190295 NOSIG
TAF:EETN 041130Z 0412/0512 27012KT 9999 OVC013
BECMG 0500/0502 19015KT 5000 SN BKN008 OVC013
TEMPO 0502/0512 18020G30KT 1000 SN BLSN VV003

Related Locations
Nearby:
Farthest:CHT: 11030 mi / 17752 km
Waitangi [Tuuta], CIT, NZ

Find:

   beyond  
but within

Other Information
Maps:
NOTAMs:
Links:
Sources:

  
  • flag of Estonia
  • flag of Tallinn
  

Sectional Chart

Flight Planning
at skyvector.com

Satellite Image

Google Maps Satellite view

 

Copyright © 2004-2019 Karl L. Swartz. All rights reserved.
The Great Circle Mapper name and logo are trademarks of the Great Circle Mapper.
All other trademarks mentioned herein belong to their respective owners.
Please see credits for attibutions and further copyright information.

  Follow gcmap on Facebook Follow gcmap on Twitter GCmap on LinkedIn

hCard Microformat

Geo Microformat